Weather History for Deering, AK

Change the Weather History Date:

Sunday, December 9, 2012

  Actual Average (PAOT) Record (PAOT)
Temperature  
Mean Temperature -21 °F -  
Max Temperature -18 °F 10 °F 36 °F (1960)
Min Temperature -24 °F -3 °F -35 °F (1964)
Degree Days  
Heating Degree Days 86 61  
Month to date heating degree days 545  
Since 1 July heating degree days 4904  
Cooling Degree Days 0    
Month to date cooling degree days  
Year to date cooling degree days  
Moisture  
Dew Point -28 °F    
Average Humidity 75    
Maximum Humidity 83    
Minimum Humidity 70    
Precipitation  
Precipitation 0.00 in 0.03 in 0.16 in (1950)
Month to date precipitation 0.23  
Year to date precipitation 10.47  
Snow  
Snow 0.00 in 0.30 in 3.00 in (2006)
Month to date snowfall 3.5  
Since 1 July snowfall 20.9  
Snow Depth -    
Sea Level Pressure  
Sea Level Pressure 29.59 in    
Wind  
Wind Speed 5 mph (SSW)    
Max Wind Speed 9 mph    
Max Gust Speed -    
Visibility 9 miles    
Events Snow    
T = Trace of Precipitation, MM = Missing Value Source: NWS Daily Summary

Daily Weather History Graph

Daily Weather History Graph

Search for Another Location

Airport:

Trip Planner

Search our weather history database for the weather conditions in past years. The results will help you decide how hot, cold, wet, or windy it might be!

Date:

Astronomy

Dec. 09, 2012 Rise Set
Actual Time 12:07 PM AKST 3:19 PM AKST
Civil Twilight 10:32 AM AKST 4:54 PM AKST
Nautical Twilight 9:16 AM AKST 6:10 PM AKST
Astronomical Twilight 8:12 AM AKST 7:14 PM AKST
Moon 6:10 AM AKST (12/9) 2:10 PM AKST (12/9)
Length of Visible Light 6h 21m
Length of Day
3h 11m
Waning Crescent, 17% of the Moon is Illuminated
Dec 9
Waning Crescent
Dec 12
New
Dec 19
First Quarter
Dec 28
Full
Jan 4
Last Quarter

Hourly Weather History & Observations

Time (AKST) Temp. Windchill Dew Point Humidity Pressure Visibility Wind Dir Wind Speed Gust Speed Precip Events Conditions
12:53 AM -22.0 °F -35.6 °F -27.9 °F 74% 29.62 in 9.0 mi SSW 4.6 mph - 0.00 in Snow Light Snow
1:53 AM -23.1 °F -38.9 °F -29.0 °F 74% 29.60 in 9.0 mi South 5.8 mph - 0.00 in Snow Light Snow
2:13 AM -23.8 °F -41.6 °F -29.2 °F 76% 29.58 in 10.0 mi South 6.9 mph - N/A   Clear
2:55 AM -23.8 °F -44.5 °F -27.4 °F 83% 29.57 in 10.0 mi South 9.2 mph - N/A   Clear
3:53 AM -20.9 °F -34.3 °F -27.9 °F 70% 29.58 in 10.0 mi SSW 4.6 mph - 0.00 in   Clear
4:53 AM -22.0 °F -39.4 °F -27.9 °F 74% 29.57 in 9.0 mi SSW 6.9 mph - 0.00 in   Clear
5:53 AM -23.1 °F -38.9 °F -27.9 °F 78% 29.56 in 10.0 mi South 5.8 mph - 0.00 in   Clear
6:53 AM -23.1 °F -36.8 °F -29.0 °F 74% 29.56 in 9.0 mi SW 4.6 mph - 0.00 in   Clear
7:53 AM -24.0 °F -40.0 °F -29.0 °F 77% 29.56 in 9.0 mi SSW 5.8 mph - 0.00 in   Clear
8:53 AM -24.0 °F - -29.0 °F 77% 29.56 in 9.0 mi Calm Calm - 0.00 in   Clear
9:53 AM -24.0 °F -35.2 °F -29.9 °F 74% 29.56 in 10.0 mi SSW 3.5 mph - 0.00 in   Clear
10:53 AM -24.0 °F -37.9 °F -29.0 °F 77% 29.57 in 10.0 mi SSW 4.6 mph - 0.00 in   Clear
11:53 AM -23.1 °F - -27.9 °F 78% 29.57 in 9.0 mi Calm Calm - 0.00 in   Clear
12:53 PM -23.1 °F -38.9 °F -29.0 °F 74% 29.58 in 9.0 mi SSW 5.8 mph - 0.00 in Snow Light Snow
1:53 PM -24.0 °F -41.8 °F -29.9 °F 74% 29.59 in 9.0 mi SSW 6.9 mph - 0.00 in Snow Light Snow
2:53 PM -23.1 °F -36.8 °F -27.9 °F 78% 29.59 in 10.0 mi SSW 4.6 mph - 0.00 in   Clear
3:53 PM -23.1 °F -40.7 °F -29.0 °F 74% 29.60 in 9.0 mi SSW 6.9 mph - 0.00 in Snow Light Snow
4:53 PM -20.9 °F -38.1 °F -27.0 °F 73% 29.60 in 9.0 mi SSW 6.9 mph - 0.00 in Snow Light Snow
5:53 PM -22.0 °F -37.7 °F -27.9 °F 74% 29.61 in 9.0 mi SSW 5.8 mph - 0.00 in Snow Light Snow
6:53 PM -23.1 °F -43.7 °F -29.0 °F 74% 29.61 in 10.0 mi SSW 9.2 mph - 0.00 in   Clear
7:53 PM -20.9 °F -31.7 °F -27.0 °F 73% 29.62 in 9.0 mi SW 3.5 mph - 0.00 in   Clear
8:53 PM -18.9 °F -37.2 °F -25.1 °F 74% 29.62 in 9.0 mi SSW 8.1 mph - 0.00 in   Clear
9:53 PM -18.0 °F -33.0 °F -24.0 °F 74% 29.62 in 10.0 mi SSW 5.8 mph - 0.00 in   Clear
10:53 PM -18.9 °F -34.0 °F -25.1 °F 74% 29.63 in 10.0 mi SSW 5.8 mph - 0.00 in Snow Light Snow
11:53 PM -18.9 °F - -24.0 °F 78% 29.64 in 10.0 mi Calm Calm - 0.00 in   Clear